contact:dominique.lefevre@mio.osupytheas.fr, maurice.libes@osupytheas.fr, didier.mallarino@osupytheas.fr
Project:EMSO http://www.emso-fr.org/EMSO-France
Depth: 2436.0 m
Title:EMSO Ligure Ouest : Data MII capteur MICROCAT
DateTime_Computer,Latitude,Longitude,Temperature,Conductivity,Pressure,DateTime_Instrument
DateTime_Computer,Latitude,Longitude,degC,S m-1,dbar,DateTime_Instrument
2021-06-26T00:00:54Z,42.805,6.029,13.2990,4.59996,2470.437,2021-6-26T02:02:08Z
2021-06-26T00:03:57Z,42.805,6.029,13.2986,4.59997,2470.474,2021-6-26T02:05:11Z
2021-06-26T00:07:00Z,42.805,6.029,13.2991,4.59996,2470.427,2021-6-26T02:08:14Z
2021-06-26T00:10:03Z,42.805,6.029,13.2987,4.59996,2470.437,2021-6-26T02:11:17Z
2021-06-26T00:13:06Z,42.805,6.029,13.2989,4.59996,2470.427,2021-6-26T02:14:21Z
2021-06-26T00:16:09Z,42.805,6.029,13.2986,4.59995,2470.46,2021-6-26T02:17:24Z
2021-06-26T00:19:12Z,42.805,6.029,13.2991,4.59998,2470.427,2021-6-26T02:20:27Z
2021-06-26T00:22:16Z,42.805,6.029,13.2991,4.59997,2470.427,2021-6-26T02:23:30Z
2021-06-26T00:25:19Z,42.805,6.029,13.2991,4.59996,2470.366,2021-6-26T02:26:33Z
2021-06-26T00:28:22Z,42.805,6.029,13.2990,4.59996,2470.413,2021-6-26T02:29:36Z
2021-06-26T00:31:25Z,42.805,6.029,13.2987,4.59997,2470.427,2021-6-26T02:32:39Z
2021-06-26T00:34:28Z,42.805,6.029,13.2989,4.59998,2470.427,2021-6-26T02:35:42Z
2021-06-26T00:37:31Z,42.805,6.029,13.2989,4.59997,2470.39,2021-6-26T02:38:46Z
2021-06-26T00:40:34Z,42.805,6.029,13.2991,4.59997,2470.39,2021-6-26T02:41:49Z
2021-06-26T00:43:37Z,42.805,6.029,13.2986,4.60001,2470.413,2021-6-26T02:44:52Z
2021-06-26T00:46:40Z,42.805,6.029,13.2989,4.59998,2470.366,2021-6-26T02:47:55Z
2021-06-26T00:49:44Z,42.805,6.029,13.2986,4.59999,2470.404,2021-6-26T02:50:58Z
2021-06-26T00:52:47Z,42.805,6.029,13.2987,4.59999,2470.366,2021-6-26T02:54:01Z
2021-06-26T00:55:50Z,42.805,6.029,13.2989,4.60002,2470.38,2021-6-26T02:57:04Z
2021-06-26T00:58:53Z,42.805,6.029,13.2989,4.59998,2470.404,2021-6-26T03:00:07Z
2021-06-26T01:01:56Z,42.805,6.029,13.2986,4.59998,2470.38,2021-6-26T03:03:11Z
2021-06-26T01:04:59Z,42.805,6.029,13.2988,4.59996,2470.366,2021-6-26T03:06:14Z
2021-06-26T01:08:02Z,42.805,6.029,13.2990,4.59998,2470.39,2021-6-26T03:09:17Z
2021-06-26T01:11:05Z,42.805,6.029,13.2987,4.59996,2470.404,2021-6-26T03:12:20Z
2021-06-26T01:14:09Z,42.805,6.029,13.2986,4.59996,2470.366,2021-6-26T03:15:23Z
2021-06-26T01:17:12Z,42.805,6.029,13.2986,4.59996,2470.404,2021-6-26T03:18:26Z
2021-06-26T01:20:15Z,42.805,6.029,13.2990,4.59998,2470.39,2021-6-26T03:21:29Z
2021-06-26T01:23:18Z,42.805,6.029,13.2993,4.59996,2470.366,2021-6-26T03:24:32Z
2021-06-26T01:26:21Z,42.805,6.029,13.2989,4.59997,2470.366,2021-6-26T03:27:35Z
2021-06-26T01:29:24Z,42.805,6.029,13.2983,4.59995,2470.343,2021-6-26T03:30:39Z
2021-06-26T01:32:27Z,42.805,6.029,13.2990,4.59996,2470.38,2021-6-26T03:33:42Z
2021-06-26T01:35:30Z,42.805,6.029,13.2989,4.59996,2470.357,2021-6-26T03:36:45Z
2021-06-26T01:38:34Z,42.805,6.029,13.2988,4.59997,2470.357,2021-6-26T03:39:48Z
2021-06-26T01:41:37Z,42.805,6.029,13.2989,4.59996,2470.357,2021-6-26T03:42:51Z
2021-06-26T01:44:40Z,42.805,6.029,13.2990,4.59996,2470.343,2021-6-26T03:45:54Z
2021-06-26T01:47:43Z,42.805,6.029,13.2989,4.59999,2470.32,2021-6-26T03:48:57Z
2021-06-26T01:50:46Z,42.805,6.029,13.2989,4.59996,2470.343,2021-6-26T03:52:01Z
2021-06-26T01:53:49Z,42.805,6.029,13.2985,4.59996,2470.32,2021-6-26T03:55:04Z
2021-06-26T01:56:52Z,42.805,6.029,13.2986,4.59996,2470.32,2021-6-26T03:58:07Z
2021-06-26T01:59:55Z,42.805,6.029,13.2990,4.59996,2470.343,2021-6-26T04:01:10Z
2021-06-26T02:02:59Z,42.805,6.029,13.2990,4.59996,2470.343,2021-6-26T04:04:13Z
2021-06-26T02:06:02Z,42.805,6.029,13.2992,4.59997,2470.343,2021-6-26T04:07:16Z
2021-06-26T02:09:05Z,42.805,6.029,13.2990,4.59996,2470.32,2021-6-26T04:10:19Z
2021-06-26T02:12:08Z,42.805,6.029,13.2991,4.59996,2470.343,2021-6-26T04:13:22Z
2021-06-26T02:15:11Z,42.805,6.029,13.2992,4.59997,2470.32,2021-6-26T04:16:25Z
2021-06-26T02:18:14Z,42.805,6.029,13.2990,4.59996,2470.343,2021-6-26T04:19:29Z
2021-06-26T02:21:17Z,42.805,6.029,13.2990,4.59996,2470.32,2021-6-26T04:22:32Z
2021-06-26T02:24:20Z,42.805,6.029,13.2990,4.59997,2470.343,2021-6-26T04:25:35Z
2021-06-26T02:27:24Z,42.805,6.029,13.2989,4.60001,2470.357,2021-6-26T04:28:38Z
2021-06-26T02:30:27Z,42.805,6.029,13.2993,4.59996,2470.334,2021-6-26T04:31:41Z
2021-06-26T02:33:30Z,42.805,6.029,13.2987,4.59998,2470.334,2021-6-26T04:34:44Z
2021-06-26T02:36:33Z,42.805,6.029,13.2987,4.59996,2470.31,2021-6-26T04:37:47Z
2021-06-26T02:39:36Z,42.805,6.029,13.2989,4.59999,2470.357,2021-6-26T04:40:50Z
2021-06-26T02:42:39Z,42.805,6.029,13.2992,4.59996,2470.32,2021-6-26T04:43:54Z
2021-06-26T02:45:42Z,42.805,6.029,13.2991,4.59996,2470.343,2021-6-26T04:46:57Z
2021-06-26T02:48:45Z,42.805,6.029,13.2986,4.59997,2470.32,2021-6-26T04:50:00Z
2021-06-26T02:51:49Z,42.805,6.029,13.2990,4.59996,2470.32,2021-6-26T04:53:03Z
2021-06-26T02:54:52Z,42.805,6.029,13.2988,4.60000,2470.297,2021-6-26T04:56:06Z
2021-06-26T02:57:55Z,42.805,6.029,13.2993,4.59996,2470.343,2021-6-26T04:59:09Z
2021-06-26T03:00:58Z,42.805,6.029,13.2991,4.60004,2470.32,2021-6-26T05:02:12Z
2021-06-26T03:04:01Z,42.805,6.029,13.2991,4.59996,2470.334,2021-6-26T05:05:15Z
2021-06-26T03:07:04Z,42.805,6.029,13.2990,4.59995,2470.273,2021-6-26T05:08:19Z
2021-06-26T03:10:07Z,42.805,6.029,13.2987,4.59996,2470.334,2021-6-26T05:11:22Z
2021-06-26T03:13:10Z,42.805,6.029,13.2987,4.59996,2470.297,2021-6-26T05:14:25Z
2021-06-26T03:16:14Z,42.805,6.029,13.2990,4.59996,2470.273,2021-6-26T05:17:28Z
2021-06-26T03:19:17Z,42.805,6.029,13.2990,4.59995,2470.32,2021-6-26T05:20:31Z
2021-06-26T03:22:20Z,42.805,6.029,13.2988,4.59995,2470.343,2021-6-26T05:23:34Z
2021-06-26T03:25:23Z,42.805,6.029,13.2990,4.59995,2470.334,2021-6-26T05:26:37Z
2021-06-26T03:28:26Z,42.805,6.029,13.2988,4.59996,2470.32,2021-6-26T05:29:40Z
2021-06-26T03:31:29Z,42.805,6.029,13.2986,4.59996,2470.343,2021-6-26T05:32:44Z
2021-06-26T03:34:32Z,42.805,6.029,13.2988,4.59996,2470.32,2021-6-26T05:35:47Z
2021-06-26T03:37:35Z,42.805,6.029,13.2990,4.59996,2470.32,2021-6-26T05:38:50Z
2021-06-26T03:40:39Z,42.805,6.029,13.2986,4.59996,2470.334,2021-6-26T05:41:53Z
2021-06-26T03:43:42Z,42.805,6.029,13.2990,4.59998,2470.343,2021-6-26T05:44:56Z
2021-06-26T03:46:45Z,42.805,6.029,13.2989,4.59996,2470.32,2021-6-26T05:47:59Z
2021-06-26T03:49:48Z,42.805,6.029,13.2990,4.59995,2470.32,2021-6-26T05:51:02Z
2021-06-26T03:52:51Z,42.805,6.029,13.2991,4.59996,2470.32,2021-6-26T05:54:05Z
2021-06-26T03:55:54Z,42.805,6.029,13.2990,4.59995,2470.343,2021-6-26T05:57:09Z
2021-06-26T03:58:57Z,42.805,6.029,13.2990,4.59995,2470.343,2021-6-26T06:00:12Z
2021-06-26T04:02:00Z,42.805,6.029,13.2988,4.59994,2470.32,2021-6-26T06:03:15Z
2021-06-26T04:05:03Z,42.805,6.029,13.2991,4.59995,2470.334,2021-6-26T06:06:18Z
2021-06-26T04:08:07Z,42.805,6.029,13.2991,4.59999,2470.32,2021-6-26T06:09:21Z
2021-06-26T04:11:10Z,42.805,6.029,13.2991,4.59997,2470.334,2021-6-26T06:12:24Z
2021-06-26T04:14:13Z,42.805,6.029,13.2990,4.59998,2470.32,2021-6-26T06:15:27Z
2021-06-26T04:17:16Z,42.805,6.029,13.2990,4.59996,2470.357,2021-6-26T06:18:30Z
2021-06-26T04:20:19Z,42.805,6.029,13.2991,4.59996,2470.334,2021-6-26T06:21:34Z
2021-06-26T04:23:22Z,42.805,6.029,13.2988,4.59996,2470.32,2021-6-26T06:24:37Z
2021-06-26T04:26:25Z,42.805,6.029,13.2989,4.59997,2470.32,2021-6-26T06:27:40Z
2021-06-26T04:29:29Z,42.805,6.029,13.2990,4.59996,2470.343,2021-6-26T06:30:43Z
2021-06-26T04:32:32Z,42.805,6.029,13.2992,4.59995,2470.343,2021-6-26T06:33:46Z
2021-06-26T04:35:35Z,42.805,6.029,13.2990,4.59996,2470.366,2021-6-26T06:36:49Z
2021-06-26T04:38:38Z,42.805,6.029,13.2991,4.59996,2470.32,2021-6-26T06:39:52Z
2021-06-26T04:41:41Z,42.805,6.029,13.2991,4.59998,2470.343,2021-6-26T06:42:55Z
2021-06-26T04:44:44Z,42.805,6.029,13.2991,4.60000,2470.357,2021-6-26T06:45:59Z
2021-06-26T04:47:47Z,42.805,6.029,13.2992,4.59996,2470.343,2021-6-26T06:49:02Z
2021-06-26T04:50:50Z,42.805,6.029,13.2991,4.59997,2470.357,2021-6-26T06:52:05Z
2021-06-26T04:53:53Z,42.805,6.029,13.2986,4.59997,2470.39,2021-6-26T06:55:08Z
2021-06-26T04:56:57Z,42.805,6.029,13.2989,4.59996,2470.38,2021-6-26T06:58:11Z
2021-06-26T05:00:00Z,42.805,6.029,13.2990,4.59996,2470.357,2021-6-26T07:01:14Z
2021-06-26T05:03:03Z,42.805,6.029,13.2988,4.59996,2470.39,2021-6-26T07:04:17Z
2021-06-26T05:06:06Z,42.805,6.029,13.2990,4.59998,2470.343,2021-6-26T07:07:20Z
2021-06-26T05:09:09Z,42.805,6.029,13.2986,4.59998,2470.32,2021-6-26T07:10:23Z
2021-06-26T05:12:12Z,42.805,6.029,13.2990,4.59998,2470.39,2021-6-26T07:13:27Z
2021-06-26T05:15:15Z,42.805,6.029,13.2991,4.59999,2470.39,2021-6-26T07:16:30Z
2021-06-26T05:18:18Z,42.805,6.029,13.2990,4.59996,2470.413,2021-6-26T07:19:33Z
2021-06-26T05:21:22Z,42.805,6.029,13.2988,4.59998,2470.376,2021-6-26T07:22:36Z
2021-06-26T05:24:25Z,42.805,6.029,13.2990,4.59997,2470.39,2021-6-26T07:25:39Z
2021-06-26T05:27:28Z,42.805,6.029,13.2990,4.59999,2470.404,2021-6-26T07:28:42Z
2021-06-26T05:30:31Z,42.805,6.029,13.2992,4.59997,2470.366,2021-6-26T07:31:45Z
2021-06-26T05:33:34Z,42.805,6.029,13.2990,4.59997,2470.39,2021-6-26T07:34:48Z
2021-06-26T05:36:37Z,42.805,6.029,13.2990,4.59996,2470.427,2021-6-26T07:37:52Z
2021-06-26T05:39:40Z,42.805,6.029,13.2987,4.59996,2470.413,2021-6-26T07:40:55Z
2021-06-26T05:42:43Z,42.805,6.029,13.2991,4.59996,2470.404,2021-6-26T07:43:58Z
2021-06-26T05:45:47Z,42.805,6.029,13.2990,4.59998,2470.366,2021-6-26T07:47:01Z
2021-06-26T05:48:50Z,42.805,6.029,13.2989,4.59997,2470.413,2021-6-26T07:50:04Z
2021-06-26T05:51:53Z,42.805,6.029,13.2989,4.59996,2470.413,2021-6-26T07:53:07Z
2021-06-26T05:54:56Z,42.805,6.029,13.2990,4.59999,2470.413,2021-6-26T07:56:10Z
2021-06-26T05:57:59Z,42.805,6.029,13.2992,4.59998,2470.427,2021-6-26T07:59:13Z
2021-06-26T06:01:02Z,42.805,6.029,13.2991,4.59997,2470.413,2021-6-26T08:02:17Z
2021-06-26T06:04:05Z,42.805,6.029,13.2991,4.59999,2470.39,2021-6-26T08:05:20Z
2021-06-26T06:07:08Z,42.805,6.029,13.2996,4.59997,2470.427,2021-6-26T08:08:23Z
2021-06-26T06:10:12Z,42.805,6.029,13.2991,4.59997,2470.413,2021-6-26T08:11:26Z
2021-06-26T06:13:15Z,42.805,6.029,13.2991,4.59999,2470.427,2021-6-26T08:14:29Z
2021-06-26T06:16:18Z,42.805,6.029,13.2990,4.59998,2470.413,2021-6-26T08:17:32Z
2021-06-26T06:19:21Z,42.805,6.029,13.2990,4.59998,2470.413,2021-6-26T08:20:35Z
2021-06-26T06:22:24Z,42.805,6.029,13.2986,4.59997,2470.437,2021-6-26T08:23:38Z
2021-06-26T06:25:27Z,42.805,6.029,13.2986,4.59997,2470.437,2021-6-26T08:26:42Z
2021-06-26T06:28:30Z,42.805,6.029,13.2990,4.59997,2470.437,2021-6-26T08:29:45Z
2021-06-26T06:31:33Z,42.805,6.029,13.2989,4.59999,2470.45,2021-6-26T08:32:48Z
2021-06-26T06:34:37Z,42.805,6.029,13.2991,4.59997,2470.45,2021-6-26T08:35:51Z
2021-06-26T06:37:40Z,42.805,6.029,13.2986,4.59999,2470.437,2021-6-26T08:38:54Z
2021-06-26T06:40:43Z,42.805,6.029,13.2990,4.59996,2470.399,2021-6-26T08:41:57Z
2021-06-26T06:43:46Z,42.805,6.029,13.2990,4.59997,2470.46,2021-6-26T08:45:00Z
2021-06-26T06:46:49Z,42.805,6.029,13.2989,4.59997,2470.427,2021-6-26T08:48:03Z
2021-06-26T06:49:52Z,42.805,6.029,13.2990,4.59998,2470.413,2021-6-26T08:51:07Z
2021-06-26T06:52:55Z,42.805,6.029,13.2992,4.59999,2470.437,2021-6-26T08:54:10Z
2021-06-26T06:55:58Z,42.805,6.029,13.2990,4.59997,2470.437,2021-6-26T08:57:13Z
2021-06-26T06:59:02Z,42.805,6.029,13.2990,4.59999,2470.437,2021-6-26T09:00:16Z
2021-06-26T07:02:05Z,42.805,6.029,13.2990,4.60009,2470.474,2021-6-26T09:03:19Z
2021-06-26T07:05:08Z,42.805,6.029,13.2992,4.59998,2470.46,2021-6-26T09:06:22Z
2021-06-26T07:08:11Z,42.805,6.029,13.2987,4.59997,2470.45,2021-6-26T09:09:25Z
2021-06-26T07:11:14Z,42.805,6.029,13.2991,4.59997,2470.474,2021-6-26T09:12:28Z
2021-06-26T07:14:17Z,42.805,6.029,13.2992,4.59997,2470.474,2021-6-26T09:15:32Z
2021-06-26T07:17:20Z,42.805,6.029,13.2991,4.59998,2470.474,2021-6-26T09:18:35Z
2021-06-26T07:20:23Z,42.805,6.029,13.2990,4.60008,2470.46,2021-6-26T09:21:38Z
2021-06-26T07:23:26Z,42.805,6.029,13.2990,4.59999,2470.46,2021-6-26T09:24:41Z
2021-06-26T07:26:30Z,42.805,6.029,13.2986,4.60001,2470.437,2021-6-26T09:27:44Z
2021-06-26T07:29:33Z,42.805,6.029,13.2991,4.59998,2470.497,2021-6-26T09:30:47Z
2021-06-26T07:32:36Z,42.805,6.029,13.2993,4.59997,2470.437,2021-6-26T09:33:50Z
2021-06-26T07:35:39Z,42.805,6.029,13.2990,4.59999,2470.45,2021-6-26T09:36:53Z
2021-06-26T07:38:42Z,42.805,6.029,13.2989,4.59999,2470.437,2021-6-26T09:39:57Z
2021-06-26T07:41:45Z,42.805,6.029,13.2993,4.60003,2470.46,2021-6-26T09:43:00Z
2021-06-26T07:44:48Z,42.805,6.029,13.2990,4.59997,2470.497,2021-6-26T09:46:03Z
2021-06-26T07:47:52Z,42.805,6.029,13.2990,4.59998,2470.46,2021-6-26T09:49:06Z
2021-06-26T07:50:55Z,42.805,6.029,13.2991,4.59999,2470.437,2021-6-26T09:52:09Z
2021-06-26T07:53:58Z,42.805,6.029,13.2988,4.59998,2470.45,2021-6-26T09:55:12Z
2021-06-26T07:57:01Z,42.805,6.029,13.2991,4.59999,2470.46,2021-6-26T09:58:15Z
2021-06-26T08:00:04Z,42.805,6.029,13.2990,4.59999,2470.497,2021-6-26T10:01:18Z
2021-06-26T08:03:07Z,42.805,6.029,13.2993,4.59999,2470.497,2021-6-26T10:04:22Z
2021-06-26T08:06:10Z,42.805,6.029,13.2990,4.59999,2470.427,2021-6-26T10:07:25Z
2021-06-26T08:09:13Z,42.805,6.029,13.2991,4.59999,2470.413,2021-6-26T10:10:28Z
2021-06-26T08:12:16Z,42.805,6.029,13.2986,4.59998,2470.437,2021-6-26T10:13:31Z
2021-06-26T08:15:20Z,42.805,6.029,13.2988,4.59998,2470.413,2021-6-26T10:16:34Z
2021-06-26T08:18:23Z,42.805,6.029,13.2990,4.59999,2470.437,2021-6-26T10:19:37Z
2021-06-26T08:21:26Z,42.805,6.029,13.2991,4.59998,2470.45,2021-6-26T10:22:40Z
2021-06-26T08:24:29Z,42.805,6.029,13.2991,4.59998,2470.413,2021-6-26T10:25:43Z
2021-06-26T08:27:32Z,42.805,6.029,13.2992,4.59998,2470.46,2021-6-26T10:28:47Z
2021-06-26T08:30:35Z,42.805,6.029,13.2991,4.60000,2470.39,2021-6-26T10:31:50Z
2021-06-26T08:33:38Z,42.805,6.029,13.2990,4.59999,2470.413,2021-6-26T10:34:53Z
2021-06-26T08:36:42Z,42.805,6.029,13.2993,4.60000,2470.437,2021-6-26T10:37:56Z
2021-06-26T08:39:45Z,42.805,6.029,13.2993,4.59999,2470.437,2021-6-26T10:40:59Z
2021-06-26T08:42:48Z,42.805,6.029,13.2991,4.59998,2470.413,2021-6-26T10:44:02Z
2021-06-26T08:45:51Z,42.805,6.029,13.2990,4.59999,2470.45,2021-6-26T10:47:05Z
2021-06-26T08:48:54Z,42.805,6.029,13.2993,4.59999,2470.46,2021-6-26T10:50:08Z
2021-06-26T08:51:57Z,42.805,6.029,13.2990,4.59999,2470.427,2021-6-26T10:53:12Z
2021-06-26T08:55:00Z,42.805,6.029,13.2990,4.60000,2470.39,2021-6-26T10:56:15Z
2021-06-26T08:58:03Z,42.805,6.029,13.2990,4.60002,2470.437,2021-6-26T10:59:18Z
2021-06-26T09:01:07Z,42.805,6.029,13.2991,4.59998,2470.413,2021-6-26T11:02:21Z
2021-06-26T09:04:10Z,42.805,6.029,13.2993,4.59998,2470.46,2021-6-26T11:05:24Z
2021-06-26T09:07:13Z,42.805,6.029,13.2990,4.59999,2470.427,2021-6-26T11:08:27Z
2021-06-26T09:10:16Z,42.805,6.029,13.2994,4.59998,2470.427,2021-6-26T11:11:30Z
2021-06-26T09:13:19Z,42.805,6.029,13.2992,4.59999,2470.45,2021-6-26T11:14:33Z
2021-06-26T09:16:22Z,42.805,6.029,13.2987,4.59999,2470.413,2021-6-26T11:17:37Z
2021-06-26T09:19:25Z,42.805,6.029,13.2988,4.60001,2470.404,2021-6-26T11:20:40Z
2021-06-26T09:22:28Z,42.805,6.029,13.2990,4.59999,2470.437,2021-6-26T11:23:43Z
2021-06-26T09:25:32Z,42.805,6.029,13.2986,4.59998,2470.39,2021-6-26T11:26:46Z
2021-06-26T09:28:35Z,42.805,6.029,13.2991,4.60003,2470.413,2021-6-26T11:29:49Z
2021-06-26T09:31:38Z,42.805,6.029,13.2991,4.59999,2470.413,2021-6-26T11:32:52Z
2021-06-26T09:34:41Z,42.805,6.029,13.2991,4.59999,2470.404,2021-6-26T11:35:55Z
2021-06-26T09:37:44Z,42.805,6.029,13.2990,4.59999,2470.404,2021-6-26T11:38:59Z
2021-06-26T09:40:47Z,42.805,6.029,13.2990,4.59999,2470.404,2021-6-26T11:42:02Z
2021-06-26T09:43:50Z,42.805,6.029,13.2991,4.60001,2470.413,2021-6-26T11:45:05Z
2021-06-26T09:46:53Z,42.805,6.029,13.2990,4.60003,2470.413,2021-6-26T11:48:08Z
2021-06-26T09:49:57Z,42.805,6.029,13.2991,4.59999,2470.413,2021-6-26T11:51:11Z
2021-06-26T09:53:00Z,42.805,6.029,13.2992,4.60000,2470.404,2021-6-26T11:54:14Z
2021-06-26T09:56:03Z,42.805,6.029,13.2987,4.59999,2470.399,2021-6-26T11:57:17Z
2021-06-26T09:59:06Z,42.805,6.029,13.2990,4.60000,2470.404,2021-6-26T12:00:20Z
2021-06-26T10:02:09Z,42.805,6.029,13.2991,4.59999,2470.413,2021-6-26T12:03:24Z
2021-06-26T10:05:12Z,42.805,6.029,13.2990,4.59998,2470.413,2021-6-26T12:06:27Z
2021-06-26T10:08:15Z,42.805,6.029,13.2993,4.59999,2470.39,2021-6-26T12:09:30Z
2021-06-26T10:11:18Z,42.805,6.029,13.2993,4.59998,2470.404,2021-6-26T12:12:33Z
2021-06-26T10:14:22Z,42.805,6.029,13.2993,4.59998,2470.39,2021-6-26T12:15:36Z
2021-06-26T10:17:25Z,42.805,6.029,13.2990,4.59999,2470.404,2021-6-26T12:18:39Z
2021-06-26T10:20:28Z,42.805,6.029,13.2992,4.60000,2470.39,2021-6-26T12:21:42Z
2021-06-26T10:23:31Z,42.805,6.029,13.2993,4.59999,2470.366,2021-6-26T12:24:45Z
2021-06-26T10:26:34Z,42.805,6.029,13.2990,4.59999,2470.357,2021-6-26T12:27:49Z
2021-06-26T10:29:37Z,42.805,6.029,13.2990,4.59999,2470.413,2021-6-26T12:30:52Z
2021-06-26T10:32:40Z,42.805,6.029,13.2987,4.59999,2470.39,2021-6-26T12:33:55Z
2021-06-26T10:35:44Z,42.805,6.029,13.2994,4.60005,2470.357,2021-6-26T12:36:58Z
2021-06-26T10:38:47Z,42.805,6.029,13.2986,4.59999,2470.427,2021-6-26T12:40:01Z
2021-06-26T10:41:50Z,42.805,6.029,13.2989,4.59999,2470.366,2021-6-26T12:43:04Z
2021-06-26T10:44:53Z,42.805,6.029,13.2993,4.60000,2470.413,2021-6-26T12:46:07Z
2021-06-26T10:47:56Z,42.805,6.029,13.2988,4.60000,2470.366,2021-6-26T12:49:10Z
2021-06-26T10:50:59Z,42.805,6.029,13.2988,4.59999,2470.343,2021-6-26T12:52:14Z
2021-06-26T10:54:02Z,42.805,6.029,13.2990,4.59999,2470.38,2021-6-26T12:55:17Z
2021-06-26T10:57:05Z,42.805,6.029,13.2994,4.60000,2470.38,2021-6-26T12:58:20Z
2021-06-26T11:00:09Z,42.805,6.029,13.2991,4.60000,2470.38,2021-6-26T13:01:23Z
2021-06-26T11:03:12Z,42.805,6.029,13.2992,4.60001,2470.343,2021-6-26T13:04:26Z
2021-06-26T11:06:15Z,42.805,6.029,13.2991,4.59999,2470.366,2021-6-26T13:07:29Z
2021-06-26T11:09:18Z,42.805,6.029,13.2991,4.60001,2470.343,2021-6-26T13:10:32Z
2021-06-26T11:12:21Z,42.805,6.029,13.2993,4.59999,2470.357,2021-6-26T13:13:36Z
2021-06-26T11:15:24Z,42.805,6.029,13.2996,4.59999,2470.38,2021-6-26T13:16:39Z
2021-06-26T11:18:27Z,42.805,6.029,13.2990,4.59999,2470.343,2021-6-26T13:19:42Z
2021-06-26T11:21:30Z,42.805,6.029,13.2986,4.59997,2470.343,2021-6-26T13:22:45Z
2021-06-26T11:24:34Z,42.805,6.029,13.2990,4.59998,2470.334,2021-6-26T13:25:48Z
2021-06-26T11:27:37Z,42.805,6.029,13.2993,4.60002,2470.343,2021-6-26T13:28:51Z
2021-06-26T11:30:40Z,42.805,6.029,13.2995,4.60000,2470.32,2021-6-26T13:31:54Z
2021-06-26T11:33:43Z,42.805,6.029,13.2993,4.59999,2470.334,2021-6-26T13:34:57Z
2021-06-26T11:36:46Z,42.805,6.029,13.2990,4.59999,2470.32,2021-6-26T13:38:01Z
2021-06-26T11:39:49Z,42.805,6.029,13.2991,4.59999,2470.343,2021-6-26T13:41:04Z
2021-06-26T11:42:52Z,42.805,6.029,13.2991,4.59999,2470.357,2021-6-26T13:44:07Z
2021-06-26T11:45:55Z,42.805,6.029,13.2990,4.59999,2470.32,2021-6-26T13:47:10Z
2021-06-26T11:48:59Z,42.805,6.029,13.2990,4.59999,2470.334,2021-6-26T13:50:13Z
2021-06-26T11:52:02Z,42.805,6.029,13.2991,4.60001,2470.343,2021-6-26T13:53:16Z
2021-06-26T11:55:05Z,42.805,6.029,13.2992,4.60000,2470.32,2021-6-26T13:56:19Z
2021-06-26T11:58:08Z,42.805,6.029,13.2993,4.59999,2470.32,2021-6-26T13:59:22Z
2021-06-26T12:01:11Z,42.805,6.029,13.2993,4.60001,2470.32,2021-6-26T14:02:26Z
2021-06-26T12:04:14Z,42.805,6.029,13.2992,4.59999,2470.297,2021-6-26T14:05:29Z
2021-06-26T12:07:17Z,42.805,6.029,13.2993,4.59998,2470.297,2021-6-26T14:08:32Z
2021-06-26T12:10:20Z,42.805,6.029,13.2994,4.59998,2470.31,2021-6-26T14:11:35Z
2021-06-26T12:13:24Z,42.805,6.029,13.2991,4.59998,2470.32,2021-6-26T14:14:38Z
2021-06-26T12:16:27Z,42.805,6.029,13.2989,4.59998,2470.31,2021-6-26T14:17:41Z
2021-06-26T12:19:30Z,42.805,6.029,13.2991,4.59999,2470.31,2021-6-26T14:20:44Z
2021-06-26T12:22:33Z,42.805,6.029,13.2989,4.59999,2470.31,2021-6-26T14:23:47Z
2021-06-26T12:25:36Z,42.805,6.029,13.2988,4.59999,2470.32,2021-6-26T14:26:51Z
2021-06-26T12:28:39Z,42.805,6.029,13.2990,4.59999,2470.297,2021-6-26T14:29:54Z
2021-06-26T12:31:42Z,42.805,6.029,13.2989,4.59997,2470.334,2021-6-26T14:32:57Z
2021-06-26T12:34:46Z,42.805,6.029,13.2993,4.59998,2470.273,2021-6-26T14:36:00Z
2021-06-26T12:37:49Z,42.805,6.029,13.2996,4.59998,2470.297,2021-6-26T14:39:03Z
2021-06-26T12:40:52Z,42.805,6.029,13.2994,4.59998,2470.32,2021-6-26T14:42:06Z
2021-06-26T12:43:55Z,42.805,6.029,13.2991,4.59998,2470.273,2021-6-26T14:45:09Z
2021-06-26T12:46:58Z,42.805,6.029,13.2991,4.59996,2470.31,2021-6-26T14:48:12Z
2021-06-26T12:50:01Z,42.805,6.029,13.2991,4.59997,2470.297,2021-6-26T14:51:16Z
2021-06-26T12:53:04Z,42.805,6.029,13.2990,4.59998,2470.31,2021-6-26T14:54:19Z
2021-06-26T12:56:07Z,42.805,6.029,13.2988,4.59997,2470.273,2021-6-26T14:57:22Z
2021-06-26T12:59:11Z,42.805,6.029,13.2991,4.59996,2470.273,2021-6-26T15:00:25Z
2021-06-26T13:02:14Z,42.805,6.029,13.2990,4.59998,2470.31,2021-6-26T15:03:28Z
2021-06-26T13:05:17Z,42.805,6.029,13.2986,4.60000,2470.273,2021-6-26T15:06:31Z
2021-06-26T13:08:20Z,42.805,6.029,13.2987,4.59999,2470.287,2021-6-26T15:09:34Z
2021-06-26T13:11:23Z,42.805,6.029,13.2990,4.59997,2470.297,2021-6-26T15:12:37Z
2021-06-26T13:14:26Z,42.805,6.029,13.2989,4.59999,2470.287,2021-6-26T15:15:41Z
2021-06-26T13:17:29Z,42.805,6.029,13.2988,4.59998,2470.213,2021-6-26T15:18:44Z
2021-06-26T13:20:32Z,42.805,6.029,13.2990,4.59999,2470.25,2021-6-26T15:21:47Z
2021-06-26T13:23:36Z,42.805,6.029,13.2990,4.59996,2470.273,2021-6-26T15:24:50Z
2021-06-26T13:26:39Z,42.805,6.029,13.2987,4.59997,2470.297,2021-6-26T15:27:53Z
2021-06-26T13:29:42Z,42.805,6.029,13.2990,4.60001,2470.273,2021-6-26T15:30:56Z
2021-06-26T13:32:45Z,42.805,6.029,13.2991,4.59997,2470.273,2021-6-26T15:33:59Z
2021-06-26T13:35:48Z,42.805,6.029,13.2990,4.60000,2470.25,2021-6-26T15:37:03Z
2021-06-26T13:38:51Z,42.805,6.029,13.2990,4.60001,2470.273,2021-6-26T15:40:06Z
2021-06-26T13:41:54Z,42.805,6.029,13.2991,4.59999,2470.297,2021-6-26T15:43:09Z
2021-06-26T13:44:57Z,42.805,6.029,13.2994,4.59998,2470.297,2021-6-26T15:46:12Z
2021-06-26T13:48:01Z,42.805,6.029,13.2991,4.59999,2470.297,2021-6-26T15:49:15Z
2021-06-26T13:51:04Z,42.805,6.029,13.2991,4.59997,2470.273,2021-6-26T15:52:18Z
2021-06-26T13:54:07Z,42.805,6.029,13.2990,4.59996,2470.273,2021-6-26T15:55:21Z
2021-06-26T13:57:10Z,42.805,6.029,13.2987,4.59996,2470.24,2021-6-26T15:58:24Z
2021-06-26T14:00:13Z,42.805,6.029,13.2993,4.59999,2470.25,2021-6-26T16:01:28Z
2021-06-26T14:03:16Z,42.805,6.029,13.2990,4.59998,2470.25,2021-6-26T16:04:31Z
2021-06-26T14:06:19Z,42.805,6.029,13.2990,4.59996,2470.273,2021-6-26T16:07:34Z
2021-06-26T14:09:22Z,42.805,6.029,13.2991,4.59998,2470.25,2021-6-26T16:10:37Z
2021-06-26T14:12:26Z,42.805,6.029,13.2991,4.59999,2470.264,2021-6-26T16:13:40Z
2021-06-26T14:15:29Z,42.805,6.029,13.2988,4.59996,2470.24,2021-6-26T16:16:43Z
2021-06-26T14:18:32Z,42.805,6.029,13.2992,4.60001,2470.264,2021-6-26T16:19:46Z
2021-06-26T14:21:35Z,42.805,6.029,13.2987,4.59996,2470.25,2021-6-26T16:22:49Z
2021-06-26T14:24:38Z,42.805,6.029,13.2990,4.59996,2470.264,2021-6-26T16:25:53Z
2021-06-26T14:27:41Z,42.805,6.029,13.2989,4.59998,2470.287,2021-6-26T16:28:56Z
2021-06-26T14:30:44Z,42.805,6.029,13.2988,4.59996,2470.25,2021-6-26T16:31:59Z
2021-06-26T14:33:47Z,42.805,6.029,13.2988,4.59997,2470.25,2021-6-26T16:35:02Z
2021-06-26T14:36:51Z,42.805,6.029,13.2991,4.59999,2470.273,2021-6-26T16:38:05Z
2021-06-26T14:39:54Z,42.805,6.029,13.2991,4.59997,2470.25,2021-6-26T16:41:08Z
2021-06-26T14:42:57Z,42.805,6.029,13.2989,4.59999,2470.287,2021-6-26T16:44:11Z
2021-06-26T14:46:00Z,42.805,6.029,13.2990,4.59998,2470.25,2021-6-26T16:47:14Z
2021-06-26T14:49:03Z,42.805,6.029,13.2988,4.59996,2470.273,2021-6-26T16:50:18Z
2021-06-26T14:52:06Z,42.805,6.029,13.2985,4.59999,2470.227,2021-6-26T16:53:21Z
2021-06-26T14:55:09Z,42.805,6.029,13.2986,4.59997,2470.25,2021-6-26T16:56:24Z
2021-06-26T14:58:12Z,42.805,6.029,13.2988,4.59996,2470.25,2021-6-26T16:59:27Z
2021-06-26T15:01:16Z,42.805,6.029,13.2990,4.59996,2470.25,2021-6-26T17:02:30Z
2021-06-26T15:04:19Z,42.805,6.029,13.2986,4.59997,2470.264,2021-6-26T17:05:33Z
2021-06-26T15:07:22Z,42.805,6.029,13.2992,4.59998,2470.24,2021-6-26T17:08:36Z
2021-06-26T15:10:25Z,42.805,6.029,13.2990,4.59999,2470.25,2021-6-26T17:11:39Z
2021-06-26T15:13:28Z,42.805,6.029,13.2991,4.60002,2470.273,2021-6-26T17:14:43Z